• In Deutschland
  • Länderverzeichnis
  • Für 7 Tage
  • Wassertemperatur
  • Satellitenkarten
  • Wetterkarte
  • Widgets
  • user-avatar
    Anmelden

    Stündliche Wetter Kievka

    Heute, 18 September, Dienstag

    Zeit Temperatur Niederschläge Wind Luftdruck Luftfeuchtigkeit
    00:00 +15°C° 0 mm 6 m/S 753 mmHg 57%
    01:00 +14°C° 0 mm 6 m/S 753 mmHg 57%
    02:00 +14°C° 0 mm 6 m/S 753 mmHg 57%
    03:00 +13°C° 0 mm 5 m/S 753 mmHg 57%
    04:00 +13°C° 0 mm 6 m/S 753 mmHg 56%
    05:00 +13°C° 0 mm 6 m/S 753 mmHg 56%
    06:00 +11°C° 0 mm 6 m/S 754 mmHg 55%
    07:00 +14°C° 0 mm 7 m/S 754 mmHg 50%
    08:00 +15°C° 0 mm 7 m/S 754 mmHg 45%
    09:00 +17°C° 0 mm 8 m/S 755 mmHg 40%
    10:00 +18°C° 0 mm 7 m/S 755 mmHg 36%
    11:00 +20°C° 0 mm 7 m/S 755 mmHg 33%
    12:00 +21°C° 0 mm 7 m/S 754 mmHg 30%
    13:00 +21°C° 0 mm 7 m/S 754 mmHg 28%
    14:00 +22°C° 0 mm 7 m/S 754 mmHg 27%
    15:00 +22°C° 0 mm 6 m/S 754 mmHg 26%
    16:00 +22°C° 0 mm 5 m/S 754 mmHg 29%
    17:00 +21°C° 0 mm 4 m/S 754 mmHg 31%
    18:00 +20°C° 0 mm 3 m/S 754 mmHg 34%
    19:00 +19°C° 0 mm 3 m/S 754 mmHg 36%
    20:00 +18°C° 0 mm 3 m/S 754 mmHg 38%
    21:00 +18°C° 0 mm 3 m/S 755 mmHg 41%
    22:00 +17°C° 0 mm 3 m/S 755 mmHg 42%
    23:00 +17°C° 0 mm 3 m/S 755 mmHg 44%

    Morgen, 19 September, Mittwoch

    Zeit Temperatur Niederschläge Wind Luftdruck Luftfeuchtigkeit
    00:00 +17°C° 0 mm 3 m/S 755 mmHg 45%
    01:00 +16°C° 0 mm 3 m/S 755 mmHg 47%
    02:00 +16°C° 0 mm 3 m/S 755 mmHg 49%
    03:00 +15°C° 0 mm 4 m/S 755 mmHg 51%
    04:00 +14°C° 0 mm 4 m/S 754 mmHg 53%
    05:00 +14°C° 0 mm 4 m/S 754 mmHg 55%
    06:00 +14°C° 0 mm 4 m/S 754 mmHg 57%
    07:00 +16°C° 0 mm 5 m/S 755 mmHg 54%
    08:00 +19°C° 0 mm 5 m/S 755 mmHg 50%
    09:00 +20°C° 0 mm 6 m/S 755 mmHg 47%
    10:00 +21°C° 0 mm 7 m/S 755 mmHg 44%
    11:00 +23°C° 0 mm 7 m/S 755 mmHg 42%
    12:00 +24°C° 0 mm 7 m/S 754 mmHg 39%
    13:00 +24°C° 0 mm 7 m/S 754 mmHg 38%
    14:00 +24°C° 0 mm 7 m/S 754 mmHg 36%
    15:00 +26°C° 0 mm 7 m/S 754 mmHg 34%
    16:00 +24°C° 0 mm 6 m/S 754 mmHg 35%
    17:00 +23°C° 0 mm 5 m/S 754 mmHg 36%
    18:00 +22°C° 0 mm 4 m/S 754 mmHg 38%
    19:00 +21°C° 0 mm 3 m/S 755 mmHg 39%
    20:00 +20°C° 0 mm 2 m/S 755 mmHg 41%
    21:00 +19°C° 0 mm 2 m/S 755 mmHg 42%
    22:00 +19°C° 0 mm 1 m/S 755 mmHg 43%
    23:00 +19°C° 0 mm 1 m/S 756 mmHg 45%

    übermorgen, 20 September, Donnerstag

    Zeit Temperatur Niederschläge Wind Luftdruck Luftfeuchtigkeit
    00:00 +18°C° 0 mm 1 m/S 756 mmHg 46%
    01:00 +18°C° 0 mm 1 m/S 756 mmHg 47%
    02:00 +18°C° 0 mm 1 m/S 756 mmHg 48%
    03:00 +17°C° 0 mm 2 m/S 756 mmHg 50%
    04:00 +16°C° 0 mm 2 m/S 756 mmHg 52%
    05:00 +16°C° 0 mm 2 m/S 756 mmHg 54%
    06:00 +16°C° 0 mm 2 m/S 756 mmHg 56%
    07:00 +18°C° 0 mm 2 m/S 756 mmHg 51%
    08:00 +20°C° 0 mm 2 m/S 756 mmHg 46%
    09:00 +23°C° 0 mm 2 m/S 756 mmHg 41%
    10:00 +24°C° 0 mm 2 m/S 756 mmHg 38%
    11:00 +25°C° 0 mm 2 m/S 756 mmHg 35%
    12:00 +26°C° 0 mm 3 m/S 755 mmHg 32%
    13:00 +27°C° 0 mm 3 m/S 755 mmHg 31%
    14:00 +28°C° 0 mm 3 m/S 755 mmHg 30%
    15:00 +28°C° 0 mm 3 m/S 754 mmHg 28%
    16:00 +27°C° 0 mm 2 m/S 754 mmHg 31%
    17:00 +26°C° 0 mm 2 m/S 754 mmHg 33%
    18:00 +25°C° 0 mm 2 m/S 754 mmHg 36%
    19:00 +24°C° 0 mm 1 m/S 754 mmHg 38%
    20:00 +23°C° 0 mm 1 m/S 754 mmHg 40%
    21:00 +22°C° 0 mm 1 m/S 754 mmHg 42%
    22:00 +22°C° 0 mm 1 m/S 754 mmHg 43%
    23:00 +22°C° 0 mm 1 m/S 754 mmHg 44%

    21 September, Freitag

    Zeit Temperatur Niederschläge Wind Luftdruck Luftfeuchtigkeit
    00:00 +20°C° 0 mm 2 m/S 754 mmHg 44%
    01:00 +20°C° 0 mm 2 m/S 753 mmHg 45%
    02:00 +19°C° 0 mm 2 m/S 753 mmHg 46%
    03:00 +19°C° 0 mm 2 m/S 753 mmHg 47%
    04:00 +19°C° 0 mm 2 m/S 753 mmHg 49%
    05:00 +18°C° 0 mm 2 m/S 753 mmHg 50%
    06:00 +18°C° 0 mm 2 m/S 753 mmHg 52%
    07:00 +20°C° 0 mm 2 m/S 754 mmHg 48%
    08:00 +23°C° 0 mm 2 m/S 754 mmHg 44%
    09:00 +25°C° 0 mm 2 m/S 754 mmHg 40%
    10:00 +26°C° 0 mm 2 m/S 754 mmHg 38%
    11:00 +27°C° 0 mm 3 m/S 754 mmHg 35%
    12:00 +28°C° 0 mm 3 m/S 754 mmHg 33%
    13:00 +29°C° 0 mm 3 m/S 753 mmHg 32%
    14:00 +29°C° 0 mm 3 m/S 753 mmHg 31%
    15:00 +30°C° 0 mm 3 m/S 753 mmHg 30%
    16:00 +29°C° 0 mm 3 m/S 753 mmHg 33%
    17:00 +28°C° 0 mm 3 m/S 753 mmHg 36%
    18:00 +26°C° 0 mm 3 m/S 753 mmHg 39%
    19:00 +25°C° 0 mm 3 m/S 753 mmHg 41%
    20:00 +24°C° 0 mm 3 m/S 753 mmHg 42%
    21:00 +22°C° 0 mm 3 m/S 754 mmHg 44%
    22:00 +22°C° 0 mm 4 m/S 754 mmHg 46%
    23:00 +21°C° 0 mm 4 m/S 754 mmHg 48%

    22 September, Samstag

    Zeit Temperatur Niederschläge Wind Luftdruck Luftfeuchtigkeit
    00:00 +21°C° 0 mm 4 m/S 754 mmHg 49%
    01:00 +20°C° 0 mm 4 m/S 754 mmHg 52%
    02:00 +19°C° 0 mm 4 m/S 754 mmHg 55%
    03:00 +19°C° 0 mm 4 m/S 754 mmHg 58%
    04:00 +18°C° 0 mm 4 m/S 754 mmHg 61%
    05:00 +18°C° 0 mm 3 m/S 754 mmHg 63%
    06:00 +17°C° 0 mm 3 m/S 754 mmHg 66%
    07:00 +19°C° 0 mm 4 m/S 754 mmHg 61%
    08:00 +20°C° 0 mm 4 m/S 754 mmHg 56%
    09:00 +22°C° 0 mm 5 m/S 754 mmHg 51%
    10:00 +23°C° 0 mm 5 m/S 754 mmHg 46%
    11:00 +25°C° 0 mm 5 m/S 754 mmHg 42%
    12:00 +27°C° 0 mm 5 m/S 754 mmHg 37%
    13:00 +27°C° 0 mm 5 m/S 754 mmHg 36%
    14:00 +27°C° 0 mm 5 m/S 753 mmHg 34%
    15:00 +28°C° 0 mm 5 m/S 753 mmHg 33%
    16:00 +27°C° 0 mm 4 m/S 753 mmHg 36%
    17:00 +26°C° 0 mm 4 m/S 753 mmHg 38%
    18:00 +25°C° 0 mm 4 m/S 753 mmHg 41%
    19:00 +23°C° 0 mm 4 m/S 753 mmHg 43%
    20:00 +22°C° 0 mm 4 m/S 753 mmHg 45%
    21:00 +21°C° 0 mm 4 m/S 753 mmHg 47%
    22:00 +21°C° 0 mm 4 m/S 753 mmHg 49%
    23:00 +20°C° 0 mm 4 m/S 753 mmHg 50%

    23 September, Sonntag

    Zeit Temperatur Niederschläge Wind Luftdruck Luftfeuchtigkeit
    00:00 +20°C° 0 mm 4 m/S 753 mmHg 52%
    01:00 +19°C° 0 mm 4 m/S 752 mmHg 56%
    02:00 +19°C° 0 mm 4 m/S 752 mmHg 60%
    03:00 +18°C° 0 mm 4 m/S 752 mmHg 63%
    04:00 +18°C° 0 mm 4 m/S 752 mmHg 66%
    05:00 +17°C° 0 mm 4 m/S 753 mmHg 69%
    06:00 +17°C° 0 mm 4 m/S 753 mmHg 72%
    07:00 +17°C° 0 mm 5 m/S 752 mmHg 61%
    08:00 +20°C° 0 mm 6 m/S 752 mmHg 51%
    09:00 +21°C° 0 mm 6 m/S 752 mmHg 41%
    10:00 +22°C° 0 mm 6 m/S 752 mmHg 37%
    11:00 +24°C° 0 mm 7 m/S 752 mmHg 33%
    12:00 +26°C° 0 mm 7 m/S 751 mmHg 29%
    13:00 +26°C° 0 mm 6 m/S 751 mmHg 28%
    14:00 +26°C° 0 mm 6 m/S 750 mmHg 27%
    15:00 +27°C° 0 mm 6 m/S 750 mmHg 26%
    16:00 +26°C° 0 mm 5 m/S 750 mmHg 29%
    17:00 +25°C° 0 mm 4 m/S 750 mmHg 31%
    18:00 +23°C° 0 mm 4 m/S 750 mmHg 33%
    19:00 +22°C° 0 mm 4 m/S 750 mmHg 36%
    20:00 +21°C° 0 mm 4 m/S 750 mmHg 38%
    21:00 +21°C° 0 mm 5 m/S 750 mmHg 41%
    22:00 +20°C° 0 mm 5 m/S 750 mmHg 45%
    23:00 +20°C° 0 mm 5 m/S 749 mmHg 50%
    Mehr zeigen